Location: Unspecified
(42.3650°N, 71.1030°W)
Time: 16:13:39
(UTC+00:00)

Cosmos 2360 Rocket - Pass Details

Date: 02 March 2024
Orbit: 833 x 845 km, 71.0° (Epoch: 18 April)

Event Time Altitude Azimuth Distance (km) Brightness Sun altitude
Rises 23:37:24 0° 338° (NNW) 3,393 5.7 -12.1°
Reaches altitude 10° 23:39:54 10° 342° (NNW) 2,457 4.9 -12.6°
Maximum altitude 23:45:28 60° 62° (ENE) 958 2.2 -13.6°
Drops below altitude 10° 23:51:01 10° 143° (SE) 2,449 4.2 -14.6°
Enters shadow 23:51:38 - 144° (SE) 2,684 4.4 -14.7°
